カタログに戻る

STARLINK-37256

運用中通信VLEO
NORAD 68569·PAYLOAD·🇺🇸 United States

打ち上げ Apr 2, 2026 から Cape Canaveral Space Force Station

Loading…

次のパス (今後24時間)

TLE

最新Source: CelesTrak SupGP

元期: Sep 14, 2026, 15:59 UTC

1 68569C 26070AD  26257.66645833  .00051258  00000+0  15151-2 0  2574
2 68569  53.1590 200.6351 0001159  80.6340  34.3829 15.34351276    10

AllMySatでSTARLINK-37256をリアルタイム追跡

Download on the App Store